This is the latest recevied weather packets stored in our database for station/object WB3IGR. If no packets are shown the sender has not sent any weather packets the latest 10 day(s).
| Time | Temp. | Humidity | Pressure | Rain* | Wind** | Luminosity | Snow |
|---|---|---|---|---|---|---|---|
| 1778153384 | 9.44° C | 71% | 1014.1 hPa | 0 mm | - | 88 W/m² | - |
| 1778153082 | 9.44° C | 72% | 1014.1 hPa | 0 mm | - | 85 W/m² | - |
| 1778152778 | 9.44° C | 74% | 1014.3 hPa | 0 mm | - | 80 W/m² | - |
| 1778152476 | 9.44° C | 75% | 1014.3 hPa | 0 mm | - | 85 W/m² | - |
| 1778152172 | 9.44° C | 77% | 1013.9 hPa | 0 mm | - | 70 W/m² | - |
| 1778151868 | 9.44° C | 78% | 1013.9 hPa | 0 mm | - | 65 W/m² | - |
| 1778151565 | 9.44° C | 78% | 1013.8 hPa | 0 mm | - | 42 W/m² | - |
| 1778151261 | 9.44° C | 78% | 1013.8 hPa | 0 mm | - | 44 W/m² | - |
| 1778150958 | 9.44° C | 79% | 1013.8 hPa | 0 mm | - | 39 W/m² | - |
| 1778150655 | 9.44° C | 79% | 1013.4 hPa | 0 mm | - | 36 W/m² | - |
| 1778150351 | 9.44° C | 79% | 1013.5 hPa | 0 mm | - | 27 W/m² | - |
| 1778150048 | 9.44° C | 78% | 1013.4 hPa | 0 mm | - | 20 W/m² | - |
| 1778149744 | 9.44° C | 78% | 1013.2 hPa | 0 mm | - | 16 W/m² | - |
| 1778149441 | 9.44° C | 79% | 1013.3 hPa | 0 mm | - | 13 W/m² | - |
| 1778149137 | 9.44° C | 79% | 1012.9 hPa | 0 mm | - | 10 W/m² | - |
| 1778148837 | 9.44° C | 80% | 1013.2 hPa | 0 mm | - | 7 W/m² | - |
| 1778148534 | 9.44° C | 82% | 1013 hPa | 0 mm | - | 4 W/m² | - |
| 1778148232 | 9.44° C | 84% | 1013 hPa | 0 mm | - | 3 W/m² | - |
| 1778147930 | 10° C | 84% | 1012.9 hPa | 0 mm | - | 0 W/m² | - |
| 1778147626 | 10° C | 84% | 1012.9 hPa | 0 mm | - | 0 W/m² | - |
| 1778147324 | 10° C | 83% | 1012.7 hPa | 0 mm | - | 0 W/m² | - |
| 1778147020 | 10° C | 82% | 1012.8 hPa | 0 mm | - | 0 W/m² | - |
| 1778146717 | 10° C | 82% | 1012.8 hPa | 0 mm | - | 0 W/m² | - |
| 1778146415 | 10° C | 82% | 1012.6 hPa | 0 mm | - | 0 W/m² | - |
| 1778146113 | 10° C | 82% | 1012.5 hPa | 0 mm | - | 0 W/m² | - |
* Rain latest hour (hover to see other rain measurements)
** Current wind speed in m/s (hover to see current wind gust speed)